sat.trackr.live / text

‹ back to catalog

STARLINK-5603

NORAD 55762 · 2023-028X

PAYLOAD ACTIVE UNKNOWN

§ Identity

Operator
Country
US
Launch date
2023-03-03
Launch site
AFWTR
Launch vehicle
Mass (kg)
RCS (m²)

Purposes: comms

External: N2YO · Heavens-Above · Gunter

§ Orbital elements

Epoch: 2026-05-25T02:01:38.728128Z

Period
96.11 min
Inclination
69.9999°
Eccentricity
0.0002797
Mean motion
14.98328933 rev/d
Perigee alt
570.1 km
Apogee alt
574.0 km
Semi-major
6,950.2 km
B*
1.9907e-5
RAAN
31.9485°
Arg perigee
268.6272°
Mean anomaly
91.4567°
Rev number
17,797

§ Raw data

STARLINK-56031 55762U 23028X   26145.08447602  .00000145  00000+0  19907-4 0  99982 55762  69.9999  31.9485 0002797 268.6272  91.4567 14.98328933177979

JSON: /api/v1/satellites/55762 · /tle

For live sub-satellite position, see the globe view (requires WebGL).

§ Visibility from observer

Set your observer location to see the next 7 days of passes ≥ 10°. The values pass through the URL so the page stays shareable.

No JS? Fill the form by hand. The geolocation button needs JavaScript.